Weather History for KIAG - September, 2013

Change the Weather History Date:

Saturday, September 7, 2013

  Actual Average Record
Temperature  
Mean Temperature 62 °F -  
Max Temperature 66 °F 74 °F 90 °F (2007)
Min Temperature 59 °F 55 °F 46 °F (2000)
Degree Days  
Heating Degree Days 2    
Growing Degree Days 12 (Base 50)    
Moisture  
Dew Point 58 °F    
Average Humidity 85    
Maximum Humidity 94    
Minimum Humidity 66    
Precipitation  
Precipitation 0.31 in - - ()
Sea Level Pressure  
Sea Level Pressure 29.97 in    
Wind  
Wind Speed 9 mph (SSW)    
Max Wind Speed 21 mph    
Max Gust Speed 28 mph    
Visibility 9 miles    
Events Rain    
Averages and records for this station are not official NWS values.
T = Trace of Precipitation, MM = Missing Value Source: NWS Daily Summary

Daily Weather History Graph

Daily Weather History Graph

Search for Another Location

Airport or City:

Trip Planner

Search our weather history database for the weather conditions in past years. The results will help you decide how hot, cold, wet, or windy it might be!

Date:

Astronomy

Sep. 07, 2013 Rise Set
Actual Time 6:46 AM EDT 7:39 PM EDT
Civil Twilight 6:17 AM EDT 8:08 PM EDT
Nautical Twilight 5:43 AM EDT 8:42 PM EDT
Astronomical Twilight 5:07 AM EDT 9:18 PM EDT
Moon 9:04 AM EDT (9/7) 8:31 PM EDT (9/7)
Length of Visible Light 13h 50m
Length of Day
12h 52m
Waxing Crescent, 5% of the Moon is Illuminated
Sep 7
Waxing Crescent
Sep 12
First Quarter
Sep 19
Full
Sep 26
Last Quarter
Oct 4
New

Hourly Weather History & Observations

Time (EDT) Temp. Dew Point Humidity Pressure Visibility Wind Dir Wind Speed Gust Speed Precip Events Conditions
12:53 AM 59.0 °F 51.1 °F 75% 30.09 in 10.0 mi SSW 6.9 mph - N/A   Clear
1:53 AM 59.0 °F 53.1 °F 81% 30.07 in 10.0 mi SSW 9.2 mph - N/A   Clear
2:53 AM 60.1 °F 54.0 °F 80% 30.06 in 10.0 mi SSW 6.9 mph - N/A   Clear
3:53 AM 60.1 °F 55.0 °F 83% 30.05 in 10.0 mi SSW 8.1 mph - N/A   Clear
4:53 AM 61.0 °F 55.9 °F 83% 30.04 in 10.0 mi SSW 5.8 mph - N/A   Clear
5:53 AM 61.0 °F 55.9 °F 83% 30.03 in 10.0 mi SSW 6.9 mph - N/A   Clear
6:53 AM 62.1 °F 55.0 °F 78% 30.03 in 10.0 mi SSW 9.2 mph - N/A   Clear
6:59 AM 60.8 °F 55.4 °F 82% 30.03 in 10.0 mi South 6.9 mph - N/A   Mostly Cloudy
7:53 AM 61.0 °F 55.0 °F 81% 30.04 in 10.0 mi SSW 5.8 mph - N/A   Overcast
8:53 AM 63.0 °F 55.0 °F 75% 30.02 in 10.0 mi South 8.1 mph - N/A   Overcast
9:53 AM 64.9 °F 55.0 °F 70% 30.02 in 10.0 mi SSW 8.1 mph - N/A   Overcast
10:38 AM 66.2 °F 55.4 °F 68% 30.01 in 10.0 mi WSW 8.1 mph - 0.00 in Rain Light Rain
10:53 AM 66.9 °F 55.0 °F 66% 30.01 in 10.0 mi SW 8.1 mph - 0.00 in Rain Light Rain
11:53 AM 66.0 °F 55.9 °F 70% 29.99 in 10.0 mi SW 11.5 mph - 0.00 in Rain Light Rain
12:53 PM 64.0 °F 59.0 °F 84% 29.96 in 9.0 mi SW 12.7 mph - 0.06 in Rain Light Rain
1:49 PM 62.6 °F 59.0 °F 88% 29.97 in 2.5 mi WSW 13.8 mph - 0.03 in Rain Light Rain
1:53 PM 62.1 °F 59.0 °F 90% 29.97 in 2.5 mi WSW 12.7 mph - 0.05 in Rain Rain
1:55 PM 62.6 °F 59.0 °F 88% 29.97 in 3.0 mi SW 15.0 mph - 0.00 in Rain Rain
2:03 PM 62.6 °F 59.0 °F 88% 29.96 in 5.0 mi SW 13.8 mph - 0.01 in Rain Light Rain
2:23 PM 62.6 °F 59.0 °F 88% 29.97 in 2.5 mi SW 20.7 mph 27.6 mph 0.03 in Rain Rain
2:32 PM 60.8 °F 59.0 °F 94% 29.95 in 3.0 mi SSW 19.6 mph 27.6 mph 0.12 in Rain Heavy Rain
2:53 PM 61.0 °F 57.9 °F 90% 29.96 in 8.0 mi SSW 16.1 mph 24.2 mph 0.15 in Rain Light Rain
3:00 PM 60.8 °F 59.0 °F 94% 29.95 in 10.0 mi SSW 17.3 mph - 0.00 in Rain Light Rain
3:42 PM 60.8 °F 57.2 °F 88% 29.94 in 10.0 mi SSW 15.0 mph 23.0 mph 0.01 in   Overcast
3:53 PM 61.0 °F 57.9 °F 90% 29.94 in 10.0 mi SSW 13.8 mph - 0.01 in   Overcast
3:58 PM 60.8 °F 57.2 °F 88% 29.94 in 10.0 mi SSW 13.8 mph - 0.00 in Rain Light Rain
4:53 PM 62.1 °F 59.0 °F 90% 29.93 in 10.0 mi SW 12.7 mph - 0.01 in Rain Light Rain
5:22 PM 62.6 °F 60.8 °F 94% 29.91 in 10.0 mi SSW 12.7 mph - 0.00 in   Mostly Cloudy
5:53 PM 63.0 °F 60.1 °F 90% 29.91 in 10.0 mi SSW 11.5 mph - 0.00 in   Mostly Cloudy
6:53 PM 64.9 °F 61.0 °F 87% 29.91 in 10.0 mi SW 6.9 mph - N/A   Mostly Cloudy
7:53 PM 64.0 °F 61.0 °F 90% 29.90 in 10.0 mi SSW 9.2 mph - N/A   Mostly Cloudy
8:53 PM 64.0 °F 61.0 °F 90% 29.91 in 10.0 mi SSW 4.6 mph - N/A   Mostly Cloudy
9:10 PM 64.4 °F 62.6 °F 94% 29.90 in 10.0 mi South 3.5 mph - 0.00 in Rain Light Rain
9:37 PM 64.4 °F 62.6 °F 94% 29.90 in 10.0 mi SSW 5.8 mph - 0.03 in   Overcast
9:53 PM 64.9 °F 63.0 °F 93% 29.89 in 10.0 mi SSW 6.9 mph - 0.03 in   Overcast
10:53 PM 66.2 °F 64.4 °F 94% 29.89 in 8.0 mi SW 5.8 mph - N/A   Overcast
11:53 PM 66.9 °F 64.0 °F 90% 29.88 in 8.0 mi SW 6.9 mph - N/A   Overcast